Temp
78 78 71 67 55 52 49 58 64 67 70 74 77 76 70 70 69 60 75 80 79 77 80 80 81 81 82 82 81 81 81 80 80 81 81 81 81 81 81 81 81 81 80 81 81 80 80 81 81
75 79 69 60 50 45 50 61 63 68 72 76 79 76 72 67 76 74 74 81 80 79 79 80 81 81 81 81 81 80 80 80 80 80 81 81 81 81 81 81 81 80 81 80 80 80 80 81 80
76 79 61 54 49 47 51 62 64 73 76 75 73 76 74 71 77 76 79 84 81 79 79 80 81 81 81 81 81 80 80 80 80 80 80 80 80 81 81 81 81 80 80 80 79 79 79 79 78
70 66 63 53 49 56 61 62 69 71 75 78 74 69 75 79 79 80 85 85 80 78 79 80 80 81 81 81 80 80 80 80 80 80 80 80 80 81 81 80 80 79 80 79 79 79 78 78 78
66 61 52 49 55 61 63 69 70 67 69 74 74 68 70 79 83 83 83 85 80 79 79 79 80 81 81 81 80 80 80 80 80 80 80 80 80 81 80 80 79 78 79 79 79 78 78 78 78
59 59 49 47 54 64 65 72 73 70 70 74 72 68 68 79 80 81 83 83 82 79 80 80 80 80 80 81 80 80 80 80 79 80 79 80 80 80 80 80 79 78 79 79 78 78 78 77 77
57 53 49 52 55 60 67 71 67 67 70 72 77 68 68 75 79 82 82 82 80 81 79 79 78 79 80 80 80 80 80 80 79 79 79 79 79 79 79 79 79 78 78 79 78 78 77 77 77
61 56 51 51 55 58 69 71 73 70 68 80 79 66 64 74 81 81 82 82 82 80 78 76 76 78 76 76 79 79 79 79 79 79 78 78 78 78 78 78 78 78 78 78 78 78 77 77 76
66 50 47 53 58 61 69 68 74 76 70 74 77 73 75 79 80 77 75 76 77 77 77 77 76 76 75 74 77 78 78 78 78 77 77 76 73 75 76 76 78 78 78 78 78 78 77 76 76
57 47 54 64 63 61 68 66 68 69 68 68 72 74 77 78 75 74 73 72 73 73 74 76 76 75 75 78 74 73 74 73 73 73 72 72 72 72 75 75 77 77 77 77 78 77 76 75 69
59 52 62 67 68 69 66 67 70 65 62 67 67 70 75 74 73 73 73 73 73 75 75 76 76 75 74 73 71 71 71 71 71 72 71 71 73 72 72 70 72 70 74 70 72 72 70 68 69
57 64 66 68 70 69 64 68 65 65 65 72 72 72 73 70 71 72 73 73 73 75 76 75 77 75 73 72 72 71 71 70 70 70 72 69 69 69 69 68 69 69 68 68 68 67 68 68 70
59 63 68 69 68 67 69 65 64 65 70 72 74 73 71 71 72 73 74 76 77 76 76 74 75 74 74 73 72 72 70 71 71 70 71 70 69 68 67 67 68 67 68 68 67 67 67 66 69
64 64 64 67 67 66 65 63 64 66 69 70 72 71 70 71 73 73 72 74 72 77 76 76 75 75 75 73 72 72 72 72 71 70 71 71 69 68 69 68 68 67 68 67 67 66 66 65 69
65 58 60 63 64 63 65 58 61 69 68 68 69 69 70 71 72 73 74 73 73 75 77 75 74 74 74 74 72 71 71 71 69 70 72 71 70 69 68 67 67 67 67 68 67 66 65 66 68
57 53 46 60 63 65 63 51 64 67 66 66 65 64 68 71 71 72 75 74 73 73 75 76 80 75 73 72 73 70 70 69 69 69 68 69 70 69 66 67 66 66 66 66 66 64 62 62 63
49 41 48 54 64 64 59 51 64 66 67 66 65 64 65 67 69 71 74 74 74 72 74 74 75 74 72 71 69 69 69 68 68 67 66 68 70 69 66 65 65 65 65 65 64 62 61 59 59
42 43 50 49 60 61 56 54 60 65 65 64 65 66 67 67 69 72 73 74 74 71 74 74 74 74 70 69 67 66 66 66 66 65 65 67 67 68 65 64 64 64 63 62 62 63 62 60 59
52 50 49 54 61 57 53 54 58 63 63 62 62 62 64 65 71 71 72 73 71 69 72 71 70 69 69 67 64 63 62 64 63 64 67 67 67 67 65 63 63 64 62 61 64 62 61 59 60
53 49 47 53 60 58 55 55 57 60 62 66 65 64 67 68 68 70 70 69 71 69 71 69 70 68 67 67 64 64 63 63 63 64 64 66 66 66 67 63 62 62 61 61 62 62 59 59 60
52 48 49 49 54 54 51 51 53 59 62 66 69 71 70 67 69 70 69 67 68 70 70 70 69 67 66 65 64 62 63 61 61 61 62 64 65 65 65 63 63 62 61 61 62 61 60 58 59
46 56 55 53 47 39 51 37 50 53 58 64 65 65 66 63 65 67 68 64 69 70 69 69 68 67 66 64 62 61 59 58 59 61 61 62 64 64 64 63 65 65 63 61 61 61 60 59 58
51 57 54 53 46 41 45 38 47 52 54 60 64 59 61 62 64 65 62 65 65 66 65 66 65 66 64 63 62 60 59 59 60 60 61 61 62 65 63 63 64 65 63 62 61 60 59 60 58
60 55 51 48 43 34 43 41 44 45 53 57 59 59 62 62 64 65 63 64 62 63 63 64 63 62 63 62 62 60 60 59 58 59 58 58 59 61 61 63 61 61 63 62 62 61 60 59 58
50 44 33 31 30 33 45 40 46 53 56 61 60 58 59 61 61 60 59 61 62 61 61 63 62 61 62 62 61 60 59 59 59 58 57 57 57 58 62 61 60 61 64 62 60 61 61 58 58
44 46 35 27 25 31 45 35 46 56 59 58 60 59 59 60 60 58 60 58 60 60 60 60 60 59 59 58 58 58 58 58 58 58 57 57 58 59 63 62 62 64 61 59 59 59 60 60 59
44 37 45 37 37 32 36 44 53 52 52 57 56 55 54 56 57 57 59 59 59 58 58 60 60 60 58 58 58 58 57 58 58 58 59 59 62 63 63 63 63 63 62 60 59 58 58 58 57
43 46 34 35 26 25 33 38 37 37 38 43 49 51 51 53 54 57 58 58 59 60 61 62 62 61 61 61 62 63 63 62 63 62 61 61 60 61 62 62 62 63 63 62 59 58 58 58 58
37 35 38 36 33 25 26 31 43 39 41 42 40 49 50 51 53 56 56 58 59 60 60 60 61 61 60 60 60 60 60 60 60 60 59 60 59 60 61 60 61 61 61 62 60 59 59 59 59
42 36 34 24 26 29 29 32 43 41 43 45 44 46 52 53 54 56 57 58 58 58 59 59 60 60 59 60 59 59 59 59 54 54 57 59 57 57 57 58 59 60 61 61 60 58 59 59 58
MSLP
1011.36 1011.15 1011.42 1011.83 1012.84 1013.00 1011.99 1009.88 1007.99 1006.71 1006.06 1005.69 1005.29 1005.62 1006.96 1007.67 1008.10 1009.10 1008.83 1009.22 1009.97 1010.78 1011.11 1011.46 1011.71 1012.07 1012.37 1012.58 1012.87 1013.19 1013.32 1013.55 1013.58 1013.61 1013.83 1013.92 1014.01 1014.08 1014.09 1014.18 1014.21 1014.32 1014.36 1014.57 1014.50 1014.57 1014.61 1014.57 1014.63
1011.28 1011.11 1011.57 1012.29 1012.98 1012.90 1011.30 1009.06 1007.86 1006.65 1006.01 1005.41 1005.36 1006.19 1007.04 1008.22 1008.21 1008.67 1009.23 1009.56 1009.86 1010.50 1011.14 1011.50 1011.80 1012.07 1012.35 1012.62 1012.91 1013.19 1013.51 1013.59 1013.76 1013.82 1013.92 1013.91 1014.09 1014.18 1014.25 1014.42 1014.46 1014.51 1014.57 1014.74 1014.84 1014.84 1014.93 1014.73 1015.00
1011.34 1011.37 1012.54 1012.76 1012.89 1012.33 1010.60 1008.81 1007.73 1006.61 1005.81 1005.86 1006.01 1006.06 1007.03 1008.09 1008.31 1008.59 1008.64 1009.21 1009.73 1010.48 1011.03 1011.46 1011.85 1012.17 1012.40 1012.67 1012.97 1013.23 1013.54 1013.68 1013.82 1013.97 1014.01 1014.14 1014.19 1014.20 1014.34 1014.49 1014.56 1014.73 1014.75 1015.00 1015.11 1015.13 1015.17 1015.09 1015.24
1011.75 1011.94 1012.62 1012.78 1012.64 1011.04 1009.78 1008.26 1007.27 1006.83 1006.20 1006.00 1006.42 1007.03 1007.33 1007.41 1007.75 1008.00 1008.39 1008.89 1009.69 1010.31 1010.57 1011.19 1011.68 1012.00 1012.35 1012.70 1013.00 1013.21 1013.42 1013.70 1013.81 1013.98 1014.10 1014.15 1014.37 1014.27 1014.48 1014.52 1014.77 1014.97 1014.97 1015.19 1015.36 1015.46 1015.42 1015.43 1015.52
1012.16 1012.79 1013.24 1013.07 1011.89 1010.26 1008.85 1007.96 1007.28 1007.17 1006.90 1006.43 1006.42 1007.35 1007.81 1007.81 1007.55 1007.93 1008.25 1008.77 1009.40 1010.20 1010.53 1010.88 1011.29 1011.77 1012.23 1012.59 1012.85 1013.14 1013.39 1013.54 1013.82 1014.00 1014.02 1014.15 1014.38 1014.40 1014.55 1014.61 1014.93 1015.18 1015.11 1015.32 1015.56 1015.61 1015.64 1015.63 1015.65
1012.73 1013.25 1013.43 1012.93 1011.55 1009.90 1008.10 1007.29 1007.14 1007.05 1006.83 1006.85 1006.79 1007.40 1008.01 1007.84 1007.51 1007.82 1008.03 1008.42 1009.06 1009.93 1010.21 1010.67 1011.30 1011.53 1011.91 1012.38 1012.67 1013.02 1013.36 1013.56 1013.69 1014.04 1014.10 1014.10 1014.14 1014.38 1014.63 1014.81 1015.08 1015.23 1015.39 1015.52 1015.59 1015.75 1015.85 1015.85 1015.82
1012.63 1013.32 1013.24 1012.40 1011.02 1009.54 1008.10 1007.36 1007.38 1007.12 1006.75 1006.65 1006.55 1007.39 1008.27 1008.08 1007.81 1007.73 1007.85 1008.26 1009.10 1009.56 1010.28 1010.62 1011.08 1011.56 1011.80 1012.26 1012.46 1012.88 1013.27 1013.49 1013.78 1013.89 1014.07 1014.12 1014.14 1014.35 1014.66 1014.91 1015.05 1015.32 1015.53 1015.57 1015.66 1015.86 1015.96 1016.00 1015.99
1012.18 1012.85 1012.77 1011.90 1010.84 1009.58 1008.07 1007.35 1007.07 1007.03 1007.05 1006.55 1006.14 1007.21 1008.39 1008.25 1008.00 1008.13 1008.15 1008.43 1009.22 1009.74 1010.37 1010.72 1010.96 1011.35 1011.72 1012.10 1012.38 1012.66 1013.05 1013.43 1013.70 1013.96 1013.97 1014.27 1014.20 1014.41 1014.53 1014.87 1015.00 1015.34 1015.62 1015.69 1015.67 1015.86 1015.96 1016.08 1016.10
1011.78 1012.77 1012.54 1011.47 1010.38 1009.47 1008.68 1008.06 1007.46 1006.97 1007.14 1007.08 1006.81 1006.99 1006.99 1007.65 1008.23 1008.58 1008.72 1009.03 1009.57 1010.11 1010.38 1010.71 1011.04 1011.40 1011.68 1011.96 1012.23 1012.66 1012.82 1013.34 1013.63 1013.98 1014.07 1014.20 1014.36 1014.42 1014.46 1014.79 1015.01 1015.33 1015.65 1015.76 1015.82 1015.90 1016.00 1016.13 1016.13
1012.20 1012.62 1011.63 1010.33 1009.85 1009.34 1008.70 1008.68 1008.32 1008.20 1008.04 1007.71 1007.59 1007.44 1007.54 1007.89 1008.25 1008.71 1009.02 1009.32 1009.69 1010.21 1010.53 1010.69 1010.85 1011.26 1011.43 1011.70 1012.02 1012.44 1012.78 1013.28 1013.49 1013.82 1014.06 1014.18 1014.40 1014.42 1014.43 1014.70 1014.85 1015.27 1015.62 1015.84 1015.91 1015.98 1016.12 1016.19 1016.25
1011.97 1011.92 1010.96 1009.90 1009.39 1008.93 1008.72 1008.48 1008.56 1008.59 1008.48 1008.19 1008.24 1008.33 1007.52 1007.71 1008.14 1008.59 1008.91 1009.07 1009.37 1009.59 1010.15 1010.33 1010.67 1010.84 1011.25 1011.57 1012.16 1012.31 1012.76 1013.12 1013.33 1013.45 1013.70 1014.03 1014.35 1014.29 1014.41 1014.67 1014.89 1015.25 1015.54 1015.97 1016.06 1016.12 1016.28 1016.37 1016.31
1011.54 1011.20 1010.82 1010.00 1009.32 1009.07 1008.77 1008.59 1008.69 1008.68 1008.29 1007.97 1007.85 1008.00 1008.28 1007.91 1008.20 1008.41 1008.57 1008.72 1008.96 1009.08 1009.31 1009.67 1010.21 1010.75 1011.08 1011.38 1011.80 1012.23 1012.46 1012.87 1013.09 1013.30 1013.27 1013.95 1014.37 1014.33 1014.65 1014.78 1015.13 1015.28 1015.75 1016.12 1016.21 1016.26 1016.33 1016.46 1016.39
1010.90 1010.57 1010.11 1009.53 1009.27 1009.10 1008.83 1008.72 1008.78 1008.18 1007.68 1007.55 1007.46 1007.44 1007.86 1008.18 1008.07 1008.00 1008.19 1008.11 1008.30 1008.67 1008.90 1009.28 1009.78 1010.39 1010.94 1011.35 1011.52 1011.93 1012.19 1012.42 1012.57 1012.99 1012.89 1013.44 1014.11 1014.46 1014.66 1014.87 1015.12 1015.45 1015.68 1016.06 1016.29 1016.35 1016.54 1016.63 1016.72
1010.24 1010.08 1009.86 1009.43 1008.94 1008.86 1008.85 1008.79 1008.84 1007.71 1007.57 1007.55 1007.23 1007.12 1007.33 1007.88 1007.56 1007.60 1007.87 1008.00 1008.26 1008.23 1008.61 1008.95 1009.56 1010.06 1010.57 1011.07 1011.42 1011.67 1011.88 1012.14 1012.52 1012.71 1012.80 1013.33 1013.82 1014.01 1014.31 1014.78 1014.98 1015.34 1015.47 1015.91 1016.13 1016.43 1016.58 1016.88 1016.92
1010.45 1010.51 1010.16 1009.38 1008.78 1008.74 1008.39 1008.64 1008.18 1007.27 1007.58 1007.20 1006.96 1006.88 1006.71 1006.74 1006.93 1006.80 1006.82 1007.28 1007.45 1007.77 1008.13 1008.69 1009.16 1009.76 1010.35 1010.78 1011.29 1011.58 1011.79 1012.08 1012.52 1012.65 1012.89 1013.43 1013.65 1013.85 1014.09 1014.63 1014.95 1015.19 1015.33 1015.66 1016.04 1016.45 1016.72 1017.16 1017.12
1011.23 1010.95 1010.54 1008.99 1008.55 1008.06 1008.40 1008.40 1007.36 1007.26 1007.33 1007.04 1006.73 1006.76 1006.65 1006.22 1006.20 1006.12 1006.15 1006.27 1006.56 1007.19 1007.77 1008.26 1008.74 1009.46 1010.05 1010.59 1011.18 1011.50 1011.56 1011.89 1012.34 1012.78 1013.05 1013.38 1013.34 1013.85 1014.10 1014.42 1014.82 1014.95 1015.21 1015.63 1016.09 1016.56 1016.94 1017.47 1017.67
1011.60 1011.53 1010.76 1009.56 1008.13 1007.60 1007.70 1007.80 1007.22 1006.81 1006.97 1006.92 1006.51 1006.31 1006.38 1006.05 1005.75 1005.45 1005.46 1005.51 1005.82 1006.64 1007.20 1008.11 1008.59 1009.19 1009.76 1010.42 1011.04 1011.38 1011.50 1011.95 1012.19 1012.54 1012.96 1013.15 1013.34 1013.65 1014.00 1014.50 1014.79 1014.91 1015.39 1015.75 1016.08 1016.66 1017.08 1017.70 1018.14
1012.26 1011.71 1010.69 1010.02 1008.91 1008.27 1008.17 1008.07 1007.55 1006.81 1006.61 1006.41 1006.45 1006.14 1005.82 1005.65 1005.20 1004.79 1004.94 1004.82 1005.15 1005.99 1006.57 1007.37 1008.24 1008.94 1009.63 1010.38 1011.20 1011.59 1011.87 1012.16 1012.34 1012.67 1012.91 1013.05 1013.32 1013.57 1013.97 1014.46 1014.82 1015.04 1015.68 1015.97 1016.33 1016.63 1017.31 1017.83 1018.10
1011.85 1011.48 1010.85 1009.72 1009.01 1008.82 1008.68 1008.33 1007.86 1006.97 1006.33 1006.08 1005.80 1005.93 1005.59 1005.34 1004.58 1004.33 1004.46 1004.36 1004.72 1005.57 1006.35 1007.24 1008.02 1008.98 1009.66 1010.42 1011.25 1011.97 1012.22 1012.50 1012.82 1012.96 1012.93 1013.14 1013.43 1013.68 1014.00 1014.45 1014.84 1014.93 1015.65 1016.17 1016.41 1017.01 1017.43 1018.18 1018.28
1011.45 1011.17 1010.68 1009.63 1009.09 1009.14 1008.63 1007.64 1007.22 1006.72 1006.07 1005.25 1004.96 1004.94 1004.69 1004.56 1004.26 1004.10 1004.07 1004.57 1004.51 1005.18 1005.82 1006.95 1007.77 1008.63 1009.36 1010.03 1010.82 1011.61 1012.17 1012.48 1012.60 1012.83 1012.91 1013.11 1013.34 1013.68 1013.84 1014.54 1014.93 1015.30 1015.76 1016.20 1016.56 1016.79 1017.51 1018.01 1018.30
1010.49 1010.70 1010.33 1010.03 1009.62 1009.23 1009.29 1007.71 1007.26 1006.22 1005.53 1004.64 1003.98 1003.67 1003.60 1003.65 1003.72 1003.68 1003.89 1004.25 1004.43 1004.85 1005.48 1006.27 1007.17 1008.13 1009.09 1009.74 1010.68 1011.55 1012.14 1012.52 1012.92 1013.14 1013.28 1013.22 1013.19 1013.54 1013.88 1014.36 1014.85 1015.26 1015.67 1016.24 1016.46 1016.71 1017.11 1017.78 1018.44
1009.93 1009.92 1009.89 1010.06 1010.22 1010.02 1009.44 1008.38 1007.45 1006.71 1005.63 1004.53 1003.69 1003.21 1002.84 1003.31 1003.33 1003.51 1003.65 1004.00 1004.33 1004.65 1005.23 1006.00 1006.76 1007.76 1008.74 1009.57 1010.65 1011.48 1012.12 1012.77 1012.83 1012.86 1012.96 1013.06 1013.06 1013.46 1013.82 1014.19 1014.47 1014.98 1015.45 1015.97 1016.39 1016.77 1017.04 1017.37 1018.09
1009.30 1009.49 1009.77 1009.91 1010.37 1010.32 1009.78 1010.49 1006.35 1006.62 1005.62 1004.38 1003.43 1003.21 1003.69 1003.58 1003.56 1003.54 1003.65 1003.59 1004.51 1004.95 1005.59 1006.36 1007.09 1007.87 1008.46 1009.42 1010.41 1011.35 1012.07 1012.34 1012.36 1012.57 1012.94 1013.18 1013.16 1013.20 1013.66 1014.02 1014.26 1014.81 1015.27 1015.71 1016.13 1016.65 1017.04 1017.21 1017.73
1009.46 1009.80 1010.10 1010.38 1010.83 1011.05 1009.62 1010.64 1007.37 1006.96 1005.08 1004.31 1003.90 1003.91 1003.92 1003.87 1003.73 1004.07 1004.44 1004.64 1004.87 1005.51 1006.19 1006.87 1007.62 1008.53 1009.04 1009.67 1010.49 1011.30 1011.87 1012.28 1012.52 1012.76 1013.27 1013.51 1013.38 1013.56 1013.88 1014.10 1014.48 1014.74 1015.06 1015.42 1015.90 1016.30 1016.74 1017.18 1017.44
1011.11 1011.13 1011.97 1012.17 1011.97 1010.74 1009.77 1010.18 1007.69 1005.98 1005.09 1004.45 1004.38 1004.35 1004.24 1004.32 1004.42 1004.62 1005.19 1005.46 1006.06 1006.48 1007.00 1007.65 1008.22 1009.26 1009.67 1010.26 1010.76 1011.39 1011.82 1012.24 1012.46 1012.91 1013.22 1013.56 1013.75 1013.92 1013.97 1014.39 1014.62 1014.71 1014.74 1015.16 1015.69 1016.21 1016.58 1017.06 1017.39
1013.16 1013.08 1013.53 1013.34 1012.94 1011.87 1010.60 1009.66 1007.71 1006.39 1005.60 1005.04 1004.72 1004.83 1005.06 1005.11 1005.22 1005.71 1005.70 1006.19 1006.71 1007.16 1007.49 1008.10 1008.82 1009.63 1010.13 1010.77 1011.28 1011.69 1011.93 1012.29 1012.54 1012.90 1013.21 1013.49 1013.66 1013.75 1013.98 1014.39 1014.50 1014.45 1014.65 1015.14 1015.70 1016.14 1016.53 1016.96 1017.29
1014.30 1014.67 1015.07 1014.37 1014.22 1013.55 1011.97 1010.19 1008.95 1008.71 1008.19 1006.63 1006.03 1006.10 1006.26 1006.07 1006.09 1006.50 1006.80 1006.73 1007.15 1007.67 1008.13 1008.57 1009.39 1010.03 1010.58 1011.13 1011.49 1011.92 1012.14 1012.38 1012.64 1013.00 1013.24 1013.45 1013.54 1013.69 1013.97 1014.31 1014.53 1014.61 1014.81 1015.15 1015.61 1016.07 1016.57 1016.86 1017.08
1017.19 1016.66 1015.57 1015.46 1015.07 1013.72 1012.25 1011.77 1012.15 1012.20 1011.34 1011.04 1008.98 1008.42 1007.47 1007.18 1007.20 1006.93 1007.28 1007.61 1007.64 1008.14 1008.40 1008.87 1009.71 1010.22 1010.70 1011.21 1011.81 1012.10 1012.12 1012.38 1012.62 1013.04 1013.43 1013.67 1013.89 1013.94 1014.13 1014.34 1014.50 1014.58 1014.82 1015.22 1015.54 1015.90 1016.31 1016.67 1016.90
1018.14 1017.45 1017.46 1017.45 1017.11 1015.19 1014.03 1013.49 1013.75 1014.04 1013.14 1012.50 1011.34 1010.10 1009.90 1008.79 1007.80 1007.69 1008.18 1007.51 1007.94 1008.62 1008.72 1009.47 1010.06 1010.55 1011.10 1011.65 1012.13 1012.33 1012.53 1012.94 1013.13 1013.49 1013.71 1013.88 1014.04 1014.18 1014.39 1014.51 1014.55 1014.65 1014.86 1015.09 1015.34 1015.63 1015.90 1016.30 1016.63
1018.60 1018.53 1018.39 1018.90 1018.25 1017.03 1015.78 1014.21 1014.24 1014.10 1013.34 1012.51 1011.82 1011.77 1010.01 1009.97 1008.76 1008.15 1007.90 1008.06 1008.53 1008.67 1009.19 1009.87 1010.45 1010.88 1011.34 1011.77 1012.26 1012.48 1012.79 1013.25 1013.68 1013.95 1014.22 1014.24 1014.42 1014.53 1014.66 1014.66 1014.68 1014.76 1014.80 1014.95 1015.21 1015.52 1015.70 1016.03 1016.53
Wind_Speed
6 7 1 4 5 6 4 7 4 5 6 5 2 8 8 3 3 4 1 10 17 14 12 13 15 15 14 13 11 10 10 9 9 9 9 8 7 8 9 9 11 11 13 13 13 13 12 11 12
4 5 5 2 5 3 6 5 3 4 1 5 7 8 6 3 3 5 6 17 17 16 12 12 16 14 14 13 12 10 9 9 8 8 7 7 7 7 8 7 9 11 12 12 12 13 12 11 12
5 2 4 4 3 4 4 4 2 4 4 4 2 5 5 4 4 7 6 17 18 15 13 12 16 14 13 13 12 10 9 7 7 6 6 6 7 8 8 8 9 11 13 12 12 12 11 11 11
2 5 5 4 5 9 5 2 4 5 4 5 3 6 5 3 11 9 13 17 17 15 14 16 17 15 14 14 12 11 10 8 7 6 5 4 6 7 8 9 9 10 12 12 11 10 10 9 10
3 3 1 2 7 7 5 4 3 2 4 3 2 3 5 4 11 9 10 14 16 13 13 16 20 17 15 15 13 11 10 10 8 6 7 3 7 6 9 9 9 10 12 11 10 9 9 8 9
4 2 2 3 5 7 5 8 7 4 2 4 2 7 2 6 9 9 9 10 16 15 14 14 17 17 16 15 14 11 10 8 10 7 5 5 4 7 9 9 9 9 10 12 10 9 8 7 7
4 3 4 6 7 7 3 5 6 2 4 6 4 4 2 4 4 6 8 8 14 15 13 11 11 12 15 13 14 12 11 10 9 7 5 7 2 7 8 8 9 9 10 12 11 9 8 6 4
3 4 3 4 2 7 4 2 4 4 1 7 6 4 5 5 6 6 5 8 14 13 12 11 10 10 8 7 13 12 10 9 8 7 7 5 7 8 9 8 10 9 8 9 10 9 8 4 2
2 3 3 4 3 5 7 6 7 4 2 5 6 4 7 12 8 5 3 5 11 9 11 11 10 8 8 7 8 11 11 9 9 7 6 6 4 5 7 8 9 9 8 9 10 9 8 3 1
4 4 7 6 3 3 6 6 6 5 8 5 4 5 8 8 6 7 6 7 6 8 7 10 9 10 9 7 7 6 6 4 5 5 5 4 4 4 6 7 11 10 9 10 9 9 8 4 2
5 5 5 8 5 2 3 7 5 6 5 7 4 5 14 9 10 9 8 9 9 9 8 10 8 7 8 6 5 3 3 3 4 6 6 5 3 4 3 3 4 3 8 3 5 5 3 3 3
5 8 9 11 7 5 2 2 5 4 9 6 7 5 6 6 9 9 10 10 10 11 11 8 9 8 6 5 6 5 4 4 4 5 7 3 2 3 1 3 3 4 3 4 4 2 4 4 6
7 9 9 7 9 6 6 7 7 11 11 9 11 6 7 8 8 7 9 10 13 14 12 9 10 10 8 7 5 5 4 5 4 4 5 4 4 3 3 3 3 3 3 3 4 4 3 2 4
5 6 7 6 9 6 9 7 4 8 6 10 9 11 8 10 11 6 5 8 10 14 13 10 11 11 10 7 7 5 5 5 4 4 5 5 4 4 4 4 4 4 4 4 4 4 3 0 3
6 6 8 12 9 8 4 7 11 15 6 16 12 11 10 10 10 11 9 8 9 12 14 12 10 9 11 9 6 5 5 5 4 4 5 5 5 5 6 4 4 4 4 4 3 3 3 3 4
6 4 3 12 4 9 11 10 15 8 6 7 11 10 11 12 12 11 11 9 8 12 15 14 12 10 9 7 6 4 5 5 5 4 4 6 6 5 4 3 3 4 4 4 3 2 3 4 4
3 5 7 8 8 7 6 6 11 6 6 9 8 7 9 10 9 11 12 11 9 12 13 13 12 12 9 8 5 5 6 5 4 4 4 6 6 6 5 4 4 5 4 4 3 2 3 4 5
5 5 5 6 6 5 5 7 9 9 8 9 9 9 9 9 11 9 11 11 10 10 15 15 12 12 10 8 5 4 4 3 3 4 4 5 3 4 5 5 5 5 4 1 2 5 4 4 7
9 13 14 9 6 5 5 8 11 11 7 9 9 9 10 10 10 8 9 10 9 10 14 13 12 9 10 6 5 3 4 3 3 4 6 4 3 3 6 4 4 5 5 4 4 4 8 4 4
10 9 9 9 5 9 12 20 9 8 9 14 10 11 13 10 8 11 8 9 13 14 17 13 13 10 8 7 4 4 4 2 3 3 4 5 3 4 6 6 5 5 4 5 4 6 3 3 2
10 6 9 11 4 3 7 20 12 8 9 12 15 18 14 12 11 9 7 10 12 16 18 16 14 10 8 8 5 4 4 3 2 2 3 4 6 6 6 6 5 5 4 4 5 5 5 4 2
8 7 10 5 4 8 5 13 14 9 14 16 11 9 8 5 2 3 6 8 13 14 14 15 14 12 9 10 7 6 4 4 3 4 4 4 4 5 6 6 6 5 4 6 5 4 3 5 7
9 4 10 6 5 5 3 1 13 5 8 10 10 4 5 5 6 7 3 9 7 9 11 10 10 10 9 9 8 6 4 3 3 2 4 3 2 8 7 6 5 5 4 6 8 7 6 3 5
7 5 5 3 4 6 6 7 21 6 10 3 3 4 5 6 7 7 8 10 11 9 9 10 11 7 8 8 8 7 7 4 4 4 4 4 3 4 5 4 4 4 4 6 7 8 8 6 4
15 4 3 4 2 12 7 7 16 10 9 7 7 5 5 5 6 8 9 12 11 12 10 10 12 8 8 8 7 6 6 5 6 5 5 5 3 2 4 3 4 4 4 5 5 6 6 6 5
9 4 2 7 3 5 3 7 9 9 8 3 4 7 5 6 6 7 10 9 10 10 11 9 9 8 8 9 8 6 7 4 5 5 4 4 3 3 4 4 4 5 5 5 5 4 5 6 5
8 6 16 6 6 4 5 8 23 23 20 8 7 6 5 6 7 8 8 10 11 10 8 11 11 10 8 8 6 6 5 6 5 5 4 3 2 3 4 4 3 3 5 6 6 4 6 6 5
12 11 6 5 6 7 7 7 0 16 19 21 17 11 2 4 6 8 9 9 9 9 8 9 8 8 8 8 6 5 4 4 5 5 5 5 4 4 4 3 3 3 3 5 6 4 5 6 4
8 6 4 2 5 4 4 2 4 6 11 16 18 11 9 4 6 4 7 10 10 8 9 7 7 8 7 8 6 5 7 7 7 6 6 5 4 4 1 2 2 4 4 4 5 6 7 8 6
13 12 1 3 6 6 2 3 1 5 11 16 17 20 10 9 7 5 10 10 10 10 9 7 8 7 8 8 6 7 7 7 7 6 5 4 4 4 2 0 0 1 4 4 4 5 6 6 6
Wind_Direction
309 293 281 33 61 71 269 262 229 11 23 334 44 73 117 41 40 157 143 128 130 141 149 149 149 149 146 140 132 125 131 126 116 116 116 112 113 118 112 112 113 109 101 92 87 79 75 65 59
311 312 36 59 85 86 271 246 358 83 204 30 32 84 47 20 74 116 114 142 137 141 147 151 152 152 150 144 141 133 126 125 125 122 121 126 126 120 113 111 117 114 107 101 91 85 79 74 60
315 213 76 100 159 186 230 339 24 355 49 43 59 65 99 131 128 144 147 143 138 143 152 156 155 156 153 148 145 143 144 136 128 119 116 119 129 130 127 123 130 126 110 105 98 95 85 72 63
358 7 8 93 256 266 244 261 5 4 358 52 81 65 62 289 160 163 146 136 141 150 152 155 158 160 161 156 153 149 147 145 134 134 131 127 144 133 136 133 136 130 119 111 104 98 92 78 65
26 67 11 223 244 265 264 211 122 327 313 249 127 155 104 28 115 140 143 136 147 151 154 156 163 164 171 163 158 156 155 157 151 148 146 148 151 148 146 135 141 140 126 120 115 105 96 80 67
4 84 38 234 258 276 220 187 155 167 267 286 52 113 184 167 132 155 149 151 142 148 155 158 162 161 160 165 162 163 161 161 149 159 156 179 182 154 145 143 145 142 140 132 119 110 101 83 65
136 92 232 282 276 310 308 152 133 206 269 259 191 91 178 175 149 155 156 143 137 141 147 152 157 160 160 175 166 167 168 166 166 158 172 160 160 157 140 140 150 151 155 144 137 125 108 86 56
111 112 257 264 293 282 5 44 354 63 296 300 167 128 184 222 156 131 123 114 146 144 149 151 153 157 153 159 166 168 168 174 177 170 162 162 131 147 139 155 154 160 161 151 140 139 121 105 35
47 58 230 251 13 275 354 10 343 320 32 348 321 141 161 150 151 151 143 99 130 143 154 156 157 160 165 169 173 173 170 185 179 176 174 168 167 171 160 162 163 160 162 154 154 143 130 140 282
120 155 231 185 300 304 336 31 327 20 329 311 15 52 106 125 147 152 163 137 134 139 155 160 165 172 173 176 160 157 161 170 169 174 184 192 194 194 183 174 165 167 161 158 162 153 152 170 255
210 214 250 291 283 346 327 329 328 346 286 242 260 240 165 164 173 178 181 171 170 165 155 172 169 160 158 136 153 153 159 174 185 189 183 205 212 217 209 159 150 154 146 144 157 155 159 211 251
260 236 246 279 288 293 239 243 289 248 239 264 268 251 222 174 179 192 195 189 174 174 180 170 164 156 156 141 156 173 167 178 195 192 191 173 206 101 82 134 155 147 152 150 161 197 194 227 262
234 253 256 274 296 275 259 239 236 252 274 276 282 300 201 199 209 218 206 206 186 180 181 166 151 155 159 158 166 176 178 185 181 184 182 156 157 136 141 131 172 159 150 163 177 199 234 267 327
270 291 276 284 281 278 272 263 181 254 243 264 268 269 238 216 199 217 258 234 182 184 178 169 158 162 157 169 180 182 177 182 178 177 171 168 162 148 132 135 144 141 151 169 179 182 210 303 70
284 300 313 284 260 246 232 274 237 258 257 245 230 249 254 229 231 208 214 221 182 180 172 169 162 152 161 178 154 144 150 127 139 157 163 165 169 158 157 152 152 155 144 148 166 178 95 100 79
336 315 276 272 249 251 167 250 265 253 291 295 247 243 239 245 216 219 216 205 201 173 168 171 170 164 159 150 141 148 130 114 120 123 121 125 134 142 114 102 136 134 127 147 155 153 128 104 84
251 246 254 301 306 197 153 227 253 255 282 283 267 247 249 250 250 222 213 203 187 170 160 165 164 165 144 130 132 124 123 121 124 113 133 133 127 135 116 106 124 119 128 148 156 116 130 113 79
236 251 274 265 293 322 288 261 269 272 248 246 257 270 261 261 254 231 217 199 183 162 162 160 163 159 133 129 117 98 100 96 106 116 117 107 124 156 135 128 136 121 111 126 116 114 87 112 114
252 267 273 277 290 287 245 250 257 260 270 267 255 243 245 253 251 251 223 197 169 145 150 153 143 154 136 136 126 117 146 146 126 144 142 147 154 172 157 147 145 139 131 164 140 102 124 103 118
248 267 289 293 326 328 318 297 269 268 261 266 254 247 242 245 260 259 220 194 163 157 152 151 152 151 149 145 123 134 144 201 158 162 165 166 182 142 144 146 141 142 132 133 141 140 123 87 180
256 251 276 268 265 283 309 285 283 271 263 272 263 254 242 224 242 246 220 192 163 157 158 158 153 145 144 127 114 85 89 67 77 122 159 196 186 176 144 154 154 154 134 156 158 144 137 135 175
259 231 264 279 335 277 156 290 282 278 276 282 265 264 234 120 330 267 221 164 180 161 153 149 146 142 139 130 124 133 144 147 192 169 179 191 179 175 152 166 165 167 150 148 154 159 156 133 172
261 252 259 230 252 322 176 258 290 304 278 266 279 177 92 78 60 27 56 163 141 133 132 130 123 128 128 124 129 134 141 175 172 139 154 186 195 169 148 146 156 155 165 167 163 165 174 144 157
300 333 330 269 137 258 243 169 276 243 236 218 68 124 104 79 71 69 73 80 91 91 96 106 105 98 108 112 119 143 161 164 134 129 131 115 86 92 117 137 159 190 184 160 169 174 176 174 166
15 46 341 300 178 239 173 198 236 270 263 208 177 160 125 95 80 107 102 105 96 93 94 100 106 106 110 115 110 126 138 136 143 142 135 135 120 115 146 160 189 209 181 155 155 173 164 160 169
302 279 213 276 242 284 291 230 250 233 222 195 139 147 141 118 108 108 122 107 103 98 99 98 99 96 93 95 93 91 103 106 102 111 123 132 140 155 161 222 205 176 150 150 148 141 149 162 168
326 34 302 252 234 237 239 308 314 357 352 281 132 131 162 140 134 125 113 112 109 104 101 101 102 107 104 102 102 99 108 113 125 118 118 143 134 147 166 191 203 169 152 159 154 148 162 169 174
357 309 336 339 265 231 221 231 207 357 354 345 1 344 98 114 119 124 121 118 102 108 110 92 105 105 107 100 105 150 123 115 100 96 95 96 86 88 103 142 162 187 190 165 164 164 165 171 179
333 304 318 249 248 278 270 170 31 341 7 357 1 348 337 359 108 122 127 117 111 114 102 109 119 123 113 122 123 111 90 79 78 80 65 64 77 78 57 32 51 179 198 187 173 178 168 176 166
272 285 262 190 311 285 287 252 65 327 352 360 357 352 341 307 319 81 126 123 131 119 109 124 137 135 125 122 110 94 94 91 78 76 67 67 75 67 99 92 251 258 203 178 192 184 183 162 156